FW0960 Weather Reports


time (UTC)temp
C
wind
direction
speed
KPH
gust
KPH
rain 1hr
cm
rain 24hr
cm
rain mn
cm
humidity
%
barometer
mb
20260504033117 8 163 0.0 0.0 0.00 0.00 0.00 68 1016.6
20260504032617 8 163 0.0 0.0 0.00 0.00 0.00 69 1016.8
20260504032110 8 163 0.0 0.0 0.00 0.00 0.00 70 1016.7
20260504031609 8 163 0.0 0.0 0.00 0.00 0.00 72 1016.7
20260504031107 8 163 0.0 0.0 0.00 0.00 0.00 71 1016.7
20260504030610 8 163 0.0 0.0 0.00 0.00 0.00 69 1016.7
20260504030134 8 163 0.0 0.0 0.00 0.00 0.00 69 1016.7
20260504025110 9 163 0.0 0.0 0.00 0.00 0.00 68 1016.7
20260504024605 9 163 0.0 0.0 0.00 0.00 0.00 68 1016.8
20260504024101 9 163 0.0 0.0 0.00 0.00 0.00 69 1016.8
20260504022604 9 163 0.0 0.0 0.00 0.00 0.00 65 1016.7
20260504022105 9 163 0.0 0.0 0.00 0.00 0.00 64 1016.7
20260504021105 10 163 0.0 0.0 0.00 0.00 0.00 66 1016.7
20260504020603 10 163 0.0 0.0 0.00 0.00 0.00 65 1016.7
20260504020050 10 163 0.0 0.0 0.00 0.00 0.00 63 1016.7
20260504015549 10 163 0.0 0.0 0.00 0.00 0.00 65 1016.6
20260504014537 10 163 0.0 0.0 0.00 0.00 0.00 65 1016.6
20260504013535 10 163 0.0 0.0 0.00 0.00 0.00 63 1016.5
20260504013031 10 163 0.0 0.0 0.00 0.00 0.00 63 1016.4
20260504012553 10 163 0.0 0.0 0.00 0.00 0.00 63 1016.4
20260504011521 10 163 0.0 0.0 0.00 0.00 0.00 59 1016.3
20260504010527 11 163 0.0 0.0 0.00 0.00 0.00 60 1016.2
20260504010024 11 163 0.0 0.0 0.00 0.00 0.00 59 1016.2
20260504005519 11 163 0.0 0.0 0.00 0.00 0.00 58 1016.1
20260504005017 11 163 0.0 0.0 0.00 0.00 0.00 58 1016.2
20260504004515 11 163 0.0 0.0 0.00 0.00 0.00 56 1016.1
20260504004025 12 163 0.0 0.0 0.00 0.00 0.00 54 1016.0
20260504003512 12 163 0.0 0.0 0.00 0.00 0.00 54 1016.0
20260504002513 12 163 0.0 0.0 0.00 0.00 0.00 52 1015.7
20260504002011 12 163 0.0 0.0 0.00 0.00 0.00 50 1015.7
20260504001510 12 163 0.0 0.0 0.00 0.00 0.00 50 1015.6
20260504001006 13 163 0.0 0.0 0.00 0.00 0.00 49 1015.4
20260504000513 13 163 0.0 0.0 0.00 0.00 0.00 49 1015.5
20260503235503 13 163 0.0 0.0 0.00 0.00 0.00 48 1015.5
20260503235020 13 163 0.0 1.6 0.00 0.00 0.00 46 1015.4
20260503234010 14 163 0.0 1.6 0.00 0.00 0.00 45 1015.4
20260503233507 14 163 0.0 1.6 0.00 0.00 0.00 45 1015.3
20260503233008 14 163 0.0 1.6 0.00 0.00 0.00 44 1015.3
20260503232010 14 213 0.0 3.2 0.00 0.00 0.00 44 1015.4
20260503231505 14 207 0.0 3.2 0.00 0.00 0.00 43 1015.3
20260503231007 14 168 0.0 1.6 0.00 0.00 0.00 45 1015.2
20260503230503 14 200 1.6 4.8 0.00 0.00 0.00 43 1015.1
20260503230003 14 202 1.6 6.4 0.00 0.00 0.00 44 1015.1
20260503225507 14 113 1.6 6.4 0.00 0.00 0.00 41 1015.0
20260503225003 14 196 1.6 9.7 0.00 0.00 0.00 43 1015.2
20260503224503 15 153 1.6 9.7 0.00 0.00 0.00 41 1015.2
20260503223505 15 216 1.6 8.0 0.00 0.00 0.00 41 1015.2
20260503223010 15 136 1.6 8.0 0.00 0.00 0.00 41 1015.1
20260503222502 15 157 1.6 8.0 0.00 0.00 0.00 43 1015.0
20260503221004 15 185 3.2 14.5 0.00 0.00 0.00 41 1015.1
20260503220506 15 152 1.6 8.0 0.00 0.00 0.00 42 1015.1
20260503220003 15 140 1.6 11.3 0.00 0.00 0.00 42 1015.2
20260503215501 15 198 1.6 11.3 0.00 0.00 0.00 43 1015.2
20260503214504 15 150 1.6 14.5 0.00 0.00 0.00 41 1015.2
20260503214006 15 159 1.6 14.5 0.00 0.00 0.00 41 1015.1
20260503213003 15 159 3.2 9.7 0.00 0.00 0.00 42 1015.2
20260503212506 15 192 3.2 9.7 0.00 0.00 0.00 41 1015.1
20260503211503 15 120 3.2 11.3 0.00 0.00 0.00 42 1015.1
20260503211003 15 206 1.6 11.3 0.00 0.00 0.00 41 1014.9
20260503210502 15 220 1.6 8.0 0.00 0.00 0.00 43 1015.0
20260503210002 15 181 3.2 9.7 0.00 0.00 0.00 45 1014.9
20260503205504 14 189 3.2 11.3 0.00 0.00 0.00 41 1015.0
20260503204959 14 163 3.2 12.9 0.00 0.00 0.00 40 1014.8
20260503204458 15 190 3.2 14.5 0.00 0.00 0.00 42 1015.0
20260503203947 15 155 3.2 14.5 0.00 0.00 0.00 42 1014.7
20260503203448 15 159 3.2 12.9 0.00 0.00 0.00 43 1014.9
20260503202948 15 198 1.6 11.3 0.00 0.00 0.00 42 1014.7
20260503202446 14 97 3.2 11.3 0.00 0.00 0.00 44 1014.8
20260503201949 14 156 3.2 14.5 0.00 0.00 0.00 41 1014.8
20260503201449 14 166 3.2 16.1 0.00 0.00 0.00 41 1014.8
20260503200451 14 153 1.6 11.3 0.00 0.00 0.00 43 1015.1
20260503195948 14 157 3.2 12.9 0.00 0.00 0.00 43 1015.0
20260503195450 14 211 3.2 12.9 0.00 0.00 0.00 42 1015.0
20260503194946 14 207 3.2 11.3 0.00 0.00 0.00 42 1015.0
20260503194451 14 124 3.2 11.3 0.00 0.00 0.00 44 1015.0
20260503193946 14 149 3.2 9.7 0.00 0.00 0.00 44 1015.1
20260503193445 14 205 3.2 14.5 0.00 0.00 0.00 44 1015.1
20260503192949 14 199 3.2 14.5 0.00 0.00 0.00 46 1015.0
20260503191938 14 196 3.2 12.9 0.00 0.00 0.00 43 1015.3
20260503191433 13 124 3.2 11.3 0.00 0.00 0.00 47 1015.3
20260503190927 13 213 3.2 9.7 0.00 0.00 0.00 44 1015.2
20260503190420 13 134 3.2 9.7 0.00 0.00 0.00 43 1015.3
20260503185915 13 148 3.2 11.3 0.00 0.00 0.00 43 1015.4
20260503185405 13 170 1.6 11.3 0.00 0.00 0.00 43 1015.5
20260503184910 13 250 1.6 8.0 0.00 0.00 0.00 47 1015.2
20260503184408 13 115 3.2 11.3 0.00 0.00 0.00 47 1015.5
20260503183409 13 178 3.2 11.3 0.00 0.00 0.00 46 1015.5
20260503182406 13 167 3.2 11.3 0.00 0.00 0.00 45 1015.7
20260503181902 13 165 3.2 11.3 0.00 0.00 0.00 49 1015.6
20260503181405 13 149 1.6 9.7 0.00 0.00 0.00 48 1015.7
20260503180903 13 149 1.6 8.0 0.00 0.00 0.00 48 1015.7
20260503180404 13 157 1.6 8.0 0.00 0.00 0.00 50 1015.5
20260503175903 13 203 3.2 9.7 0.00 0.00 0.00 47 1015.6
20260503174903 12 196 3.2 12.9 0.00 0.00 0.00 48 1015.5
20260503173905 12 188 3.2 12.9 0.00 0.00 0.00 49 1015.5
20260503173403 12 182 3.2 11.3 0.00 0.00 0.00 50 1015.5
20260503172403 12 202 1.6 14.5 0.00 0.00 0.00 49 1015.7
20260503171901 12 158 3.2 9.7 0.00 0.00 0.00 51 1015.6
20260503170907 12 231 3.2 12.9 0.00 0.00 0.00 50 1015.7
20260503170402 12 213 3.2 12.9 0.00 0.00 0.00 52 1015.7
20260503150835 10 177 3.2 16.1 0.00 0.00 0.00 60 1016.0
20260503150343 10 183 3.2 16.1 0.00 0.00 0.00 59 1016.1
20260503130253 8 206 1.6 8.0 0.00 0.00 0.00 69 1015.9
20260503110739 7 189 1.6 6.4 0.00 0.00 0.00 74 1014.5
20260503110239 6 176 1.6 6.4 0.00 0.00 0.00 75 1014.5
20260503100237 6 153 0.0 0.0 0.00 0.00 0.00 76 1013.5
20260503090233 7 221 0.0 0.0 0.00 0.00 0.00 74 1012.8
20260503081225 7 192 0.0 0.0 0.00 0.00 0.00 72 1012.6
20260503080726 7 192 0.0 0.0 0.00 0.00 0.00 72 1012.5
20260503072208 8 195 0.0 0.0 0.00 0.00 0.00 69 1012.3
20260503071205 8 211 0.0 0.0 0.00 0.00 0.00 69 1012.3
20260503070702 8 211 0.0 0.0 0.00 0.00 0.00 67 1012.2
20260503070157 9 202 0.0 3.2 0.00 0.00 0.00 66 1012.1
20260503060136 10 215 1.6 8.0 0.00 0.00 0.00 61 1012.2
20260503054634 10 198 1.6 6.4 0.00 0.00 0.00 65 1011.9
20260503054136 11 196 1.6 6.4 0.00 0.00 0.00 65 1012.0
20260503053633 11 209 1.6 6.4 0.00 0.00 0.00 65 1011.9
20260503053133 11 189 1.6 9.7 0.00 0.00 0.00 65 1012.1
20260503052631 11 224 1.6 9.7 0.00 0.00 0.00 65 1011.9
20260503052135 11 205 1.6 8.0 0.00 0.00 0.00 65 1011.8
20260503051630 11 210 3.2 9.7 0.00 0.00 0.00 64 1011.9
20260503051132 11 222 3.2 9.7 0.00 0.00 0.00 63 1011.8
20260503050130 11 200 1.6 12.9 0.00 0.00 0.00 63 1012.0
20260503045633 11 205 1.6 8.0 0.00 0.00 0.00 63 1012.2
20260503045129 11 205 1.6 8.0 0.00 0.00 0.00 63 1012.1
20260503044633 11 206 1.6 4.8 0.00 0.00 0.00 63 1012.1
20260503044126 11 209 1.6 4.8 0.00 0.00 0.00 61 1012.1
20260503043643 11 204 1.6 9.7 0.00 0.00 0.00 61 1012.1
20260503042626 11 203 1.6 4.8 0.00 0.00 0.00 60 1012.3
20260503042125 11 202 1.6 12.9 0.00 0.00 0.00 59 1012.3
20260503041623 11 204 1.6 12.9 0.00 0.00 0.00 60 1012.3
20260503041124 11 187 1.6 4.8 0.00 0.00 0.00 61 1012.3
20260503040625 11 191 1.6 6.4 0.00 0.00 0.00 61 1012.2
20260503040125 11 201 1.6 6.4 0.00 0.00 0.00 59 1012.3
20260503035623 11 202 1.6 4.8 0.00 0.00 0.00 59 1012.7
20260503035130 11 210 1.6 4.8 0.00 0.00 0.00 59 1012.8
20260503034623 11 225 1.6 6.4 0.00 0.00 0.00 59 1012.6
20260503034139 11 190 1.6 6.4 0.00 0.00 0.00 59 1012.5